Date,TemperatureHighF,TemperatureAvgF,TemperatureLowF,DewpointHighF,DewpointAvgF,DewpointLowF,HumidityHigh,HumidityAvg,HumidityLow,PressureMaxIn,PressureMinIn,WindSpeedMaxMPH,WindSpeedAvgMPH,GustSpeedMaxMPH,PrecipitationSumIn
2013-2-1,36.0,21.7,14.0,21.0,9.1,2.0,89,59,44,0.00,40.00,25,14,48,0.00
2013-2-2,29.0,21.5,10.0,27.0,12.9,3.0,98,71,46,0.00,40.00,10,4,20,0.00
2013-2-3,33.0,29.7,26.0,29.0,23.3,18.0,98,77,67,0.00,40.00,17,12,38,0.00
2013-2-4,39.0,29.4,19.0,22.0,17.0,11.0,78,61,42,0.00,40.00,15,6,30,0.00
2013-2-5,43.0,37.4,30.0,36.0,27.7,18.0,95,68,52,0.00,40.00,12,5,22,0.00
2013-2-6,50.0,39.9,28.0,36.0,22.4,10.0,95,53,24,0.00,40.00,12,6,30,0.00
2013-2-7,41.0,34.1,27.0,35.0,27.5,18.0,100,78,52,0.00,40.00,8,3,18,0.29
2013-2-8,45.0,35.9,30.0,42.0,32.3,22.0,100,88,54,0.00,40.00,18,8,41,0.36
2013-2-9,51.0,33.5,27.0,23.0,16.1,1.0,76,54,13,0.00,40.00,17,9,50,0.01
2013-2-10,44.0,36.4,29.0,31.0,18.4,12.0,86,50,33,0.00,40.00,15,8,34,0.08
2013-2-11,58.0,47.3,33.0,56.0,38.5,17.0,100,76,29,0.00,40.00,19,12,39,0.10
2013-2-12,51.0,39.6,34.0,23.0,19.0,7.0,56,45,18,0.00,40.00,18,12,35,0.01
2013-2-13,40.0,35.6,32.0,40.0,34.4,28.0,100,95,86,0.00,40.00,16,7,39,0.30
2013-2-14,49.0,36.1,28.0,29.0,23.9,13.0,89,64,29,0.00,40.00,19,8,44,0.03
2013-2-15,49.0,37.0,28.0,36.0,27.8,19.0,95,72,32,0.00,40.00,14,6,23,0.00
2013-2-16,32.0,26.8,19.0,26.0,18.3,7.0,86,71,50,0.00,40.00,17,9,32,0.00
2013-2-17,28.0,21.1,13.0,16.0,6.1,1.0,86,54,31,0.00,40.00,17,13,41,0.00
2013-2-18,45.0,31.8,16.0,21.0,12.3,1.0,74,45,31,0.00,40.00,12,7,32,0.00
2013-2-19,44.0,35.6,31.0,39.0,23.5,6.0,99,64,31,0.00,40.00,26,13,44,0.00
2013-2-20,40.0,31.4,25.0,11.0,3.7,-7.0,51,33,14,0.00,40.00,13,10,35,0.00
2013-2-21,55.0,36.1,23.0,13.0,7.0,-4.0,54,33,9,0.00,40.00,10,5,21,0.00
2013-2-22,34.0,31.1,29.0,33.0,30.3,11.0,100,97,38,0.00,40.00,134,34,194,0.01
2013-2-23,50.0,39.0,31.0,47.0,37.9,31.0,100,96,80,0.00,40.00,134,44,134,0.31
2013-2-24,50.0,40.7,33.0,39.0,27.5,16.0,100,64,32,0.00,40.00,12,7,31,0.01
2013-2-25,39.0,31.2,25.0,26.0,21.3,17.0,86,67,51,0.00,40.00,8,4,17,0.00
2013-2-26,39.0,32.6,27.0,38.0,30.1,15.0,100,91,61,0.00,40.00,97,-37,172,1.26
2013-2-27,46.0,38.3,33.0,37.0,29.7,22.0,100,72,47,0.00,40.00,16,10,32,0.17
2013-2-28,35.0,30.6,28.0,30.0,24.5,22.0,89,78,66,0.00,40.00,15,9,30,0.00